EW6393 Weather Reports


Display with metric or nautical units.
time (UTC)temp
F
wind
direction
speed
MPH
gust
MPH
rain 1hr
in
rain 24hr
in
rain mn
in
humidity
%
barometer
mb
20260506051135 52 283 1.0 2.0 0.00 0.00 0.00 63 1011.3
20260506050615 52 261 0.0 3.0 0.00 0.00 0.00 62 1011.1
20260506050115 52 254 1.0 3.0 0.00 0.00 0.00 61 1010.8
20260506045123 52 87 0.0 1.0 0.00 0.00 0.00 59 1010.6
20260506044624 52 100 0.0 1.0 0.00 0.00 0.00 59 1010.5
20260506044132 53 100 0.0 1.0 0.00 0.00 0.00 59 1010.6
20260506043617 52 82 0.0 2.0 0.00 0.00 0.00 59 1010.8
20260506043117 53 101 1.0 2.0 0.00 0.00 0.00 58 1010.8
20260506042626 53 84 0.0 1.0 0.00 0.00 0.00 58 1010.7
20260506042143 52 84 0.0 2.0 0.00 0.00 0.00 58 1010.7
20260506041630 52 96 0.0 1.0 0.00 0.00 0.00 59 1010.8
20260506041114 52 33 0.0 1.0 0.00 0.00 0.00 59 1010.9
20260506040657 52 20 0.0 2.0 0.00 0.00 0.00 59 1010.9
20260506040115 52 71 0.0 2.0 0.00 0.00 0.00 60 1010.8
20260506035615 51 65 0.0 1.0 0.00 0.00 0.00 60 1010.8
20260506035124 52 55 0.0 1.0 0.00 0.00 0.00 60 1010.8
20260506034624 52 55 0.0 1.0 0.00 0.00 0.00 60 1010.8
20260506034131 52 55 0.0 1.0 0.00 0.00 0.00 60 1010.6
20260506033612 52 55 0.0 1.0 0.00 0.00 0.00 58 1010.4
20260506033112 53 55 0.0 2.0 0.00 0.00 0.00 58 1010.4
20260506032620 53 55 1.0 2.0 0.00 0.00 0.00 57 1010.4
20260506032122 53 126 0.0 1.0 0.00 0.00 0.00 58 1010.5
20260506031622 53 126 0.0 1.0 0.00 0.00 0.00 58 1010.6
20260506031116 53 126 0.0 1.0 0.00 0.00 0.00 57 1010.5
20260506030615 54 126 0.0 1.0 0.00 0.00 0.00 56 1010.5
20260506030115 54 161 0.0 0.0 0.00 0.00 0.00 56 1010.3
20260506025622 54 161 0.0 0.0 0.00 0.00 0.00 56 1010.3
20260506025123 55 161 0.0 0.0 0.00 0.00 0.00 55 1010.2
20260506024632 55 161 0.0 0.0 0.00 0.00 0.00 55 1010.1
20260506024134 56 161 0.0 0.0 0.00 0.00 0.00 53 1010.1
20260506023615 56 161 0.0 0.0 0.00 0.00 0.00 53 1010.1
20260506023123 57 161 0.0 1.0 0.00 0.00 0.00 52 1009.9
20260506022623 58 161 0.0 1.0 0.00 0.00 0.00 49 1009.8
20260506022131 59 160 0.0 2.0 0.00 0.00 0.00 48 1009.8
20260506021612 60 125 1.0 3.0 0.00 0.00 0.00 46 1009.7
20260506021112 61 165 0.0 3.0 0.00 0.00 0.00 45 1009.6
20260506020613 62 226 0.0 2.0 0.00 0.00 0.00 45 1009.5
20260506020119 62 226 1.0 2.0 0.00 0.00 0.00 44 1009.6
20260506015621 62 153 0.0 2.0 0.00 0.00 0.00 44 1009.5
20260506015129 63 213 0.0 3.0 0.00 0.00 0.00 42 1009.4
20260506014629 64 207 1.0 3.0 0.00 0.00 0.00 41 1009.6
20260506014130 64 23 0.0 3.0 0.00 0.00 0.00 41 1009.6
20260506013611 64 232 0.0 2.0 0.00 0.00 0.00 42 1009.5
20260506013118 64 233 0.0 2.0 0.00 0.00 0.00 42 1009.5
20260506012620 64 186 1.0 3.0 0.00 0.00 0.00 41 1009.5
20260506012128 64 53 1.0 3.0 0.00 0.00 0.00 38 1009.5
20260506011628 64 184 0.0 3.0 0.00 0.00 0.00 38 1009.5
20260506011136 64 209 0.0 3.0 0.00 0.00 0.00 39 1009.6
20260506010637 64 167 1.0 3.0 0.00 0.00 0.00 39 1009.5
20260506010122 63 135 1.0 3.0 0.00 0.00 0.00 40 1009.6
20260506005643 64 112 1.0 3.0 0.00 0.00 0.00 38 1009.6
20260506005129 64 155 2.0 3.0 0.00 0.00 0.00 38 1009.6
20260506004626 64 177 1.0 5.0 0.00 0.00 0.00 39 1009.7
20260506004117 63 200 1.0 5.0 0.00 0.00 0.00 40 1009.6
20260506003618 63 171 2.0 4.0 0.00 0.00 0.00 39 1009.7
20260506003120 63 149 1.0 4.0 0.00 0.00 0.00 39 1009.8
20260506002644 64 154 1.0 4.0 0.00 0.00 0.00 39 1009.7
20260506002123 63 243 0.0 5.0 0.00 0.00 0.00 39 1009.7
20260506001652 63 253 2.0 4.0 0.00 0.00 0.00 41 1009.7
20260506001112 63 288 2.0 4.0 0.00 0.00 0.00 39 1009.7
20260506000640 63 295 2.0 4.0 0.00 0.00 0.00 41 1009.8
20260506000120 64 330 1.0 3.0 0.00 0.00 0.00 40 1009.7
20260505235628 63 254 1.0 4.0 0.00 0.00 0.00 42 1009.6
20260505235129 62 259 1.0 5.0 0.00 0.00 0.00 42 1009.7
20260505234636 63 271 1.0 3.0 0.00 0.00 0.00 39 1009.7
20260505234117 64 293 1.0 3.0 0.00 0.00 0.00 41 1009.7
20260505233617 63 210 1.0 3.0 0.00 0.00 0.00 42 1009.7
20260505233145 63 272 0.0 2.0 0.00 0.00 0.00 41 1009.8
20260505232646 63 268 0.0 3.0 0.00 0.00 0.00 46 1009.9
20260505232133 63 148 1.0 3.0 0.00 0.00 0.00 42 1009.9
20260505231614 62 221 0.0 2.0 0.00 0.00 0.00 44 1009.9
20260505231113 60 219 1.0 2.0 0.00 0.00 0.00 46 1010.1
20260505230642 60 101 1.0 3.0 0.00 0.00 0.00 45 1010.1
20260505230127 59 160 1.0 3.0 0.00 0.00 0.00 48 1010.1
20260505225627 58 191 0.0 2.0 0.00 0.00 0.00 49 1010.3
20260505225129 58 75 0.0 3.0 0.00 0.00 0.00 48 1010.3
20260505224637 58 89 2.0 4.0 0.00 0.00 0.00 47 1010.4
20260505224118 58 169 1.0 5.0 0.00 0.00 0.00 47 1010.4
20260505223618 57 89 0.0 3.0 0.00 0.00 0.00 49 1010.4
20260505223119 56 309 1.0 4.0 0.00 0.00 0.00 50 1010.5
20260505222627 56 70 1.0 5.0 0.00 0.00 0.00 48 1010.6
20260505222129 57 70 2.0 5.0 0.00 0.00 0.00 48 1010.8
20260505221636 56 35 1.0 4.0 0.00 0.00 0.00 52 1010.8
20260505221116 56 82 0.0 5.0 0.00 0.00 0.00 52 1010.8
20260505220615 55 174 1.0 10.0 0.00 0.00 0.00 53 1010.8
20260505220121 55 72 4.0 10.0 0.00 0.00 0.00 56 1010.9
20260505215124 54 88 6.0 12.0 0.00 0.00 0.00 60 1011.1
20260505214632 54 60 4.0 11.0 0.00 0.00 0.00 62 1011.3
20260505214117 54 79 6.0 11.0 0.00 0.00 0.00 62 1011.3
20260505213636 54 84 5.0 13.0 0.00 0.00 0.00 62 1011.4
20260505213123 54 120 6.0 13.0 0.00 0.00 0.00 60 1011.4
20260505212624 54 75 1.0 9.0 0.00 0.00 0.00 60 1011.4
20260505212132 55 80 3.0 9.0 0.00 0.00 0.00 59 1011.4
20260505211617 55 53 2.0 6.0 0.00 0.00 0.00 57 1011.4
20260505211117 55 63 1.0 6.0 0.00 0.00 0.00 58 1011.4
20260505210640 55 34 2.0 5.0 0.00 0.00 0.00 58 1011.3
20260505210147 55 23 1.0 6.0 0.00 0.00 0.00 57 1011.3
20260505205628 55 41 2.0 6.0 0.00 0.00 0.00 61 1011.3
20260505205129 56 18 2.0 5.0 0.00 0.00 0.00 60 1011.3
20260505204617 56 33 1.0 3.0 0.00 0.00 0.00 57 1011.3
20260505204119 56 283 0.0 2.0 0.00 0.00 0.00 53 1011.3
20260505203626 56 130 0.0 1.0 0.00 0.00 0.00 51 1011.3
20260505203127 57 136 1.0 1.0 0.00 0.00 0.00 50 1011.2
20260505202628 56 138 0.0 3.0 0.00 0.00 0.00 50 1011.3
20260505202137 56 137 1.0 3.0 0.00 0.00 0.00 50 1011.3
20260505201617 56 266 0.0 1.0 0.00 0.00 0.00 50 1011.3
20260505201124 56 266 0.0 3.0 0.00 0.00 0.00 49 1011.3
20260505200622 56 153 1.0 3.0 0.00 0.00 0.00 50 1011.3
20260505200132 56 91 2.0 5.0 0.00 0.00 0.00 49 1011.3
20260505195651 56 141 1.0 5.0 0.00 0.00 0.00 50 1011.3
20260505195111 56 130 2.0 4.0 0.00 0.00 0.00 50 1011.3
20260505194638 56 120 2.0 10.0 0.00 0.00 0.00 52 1011.2
20260505194118 56 58 5.0 11.0 0.00 0.00 0.00 53 1011.2
20260505193624 56 61 4.0 11.0 0.00 0.00 0.00 53 1011.2
20260505193125 56 118 3.0 9.0 0.00 0.00 0.00 51 1011.2
20260505192633 56 63 5.0 9.0 0.00 0.00 0.00 51 1011.3
20260505192134 56 79 3.0 10.0 0.00 0.00 0.00 53 1011.4
20260505191613 56 89 5.0 10.0 0.00 0.00 0.00 52 1011.4
20260505191120 57 88 4.0 10.0 0.00 0.00 0.00 50 1011.4
20260505190621 56 208 0.0 1.0 0.00 0.00 0.00 48 1011.4
20260505190128 56 267 0.0 1.0 0.00 0.00 0.00 50 1011.3
20260505185629 56 288 0.0 4.0 0.00 0.00 0.00 50 1011.4
20260505185137 56 185 1.0 4.0 0.00 0.00 0.00 50 1011.4
20260505184618 56 199 0.0 7.0 0.00 0.00 0.00 51 1011.5
20260505184119 56 326 3.0 7.0 0.00 0.00 0.00 48 1011.5
20260505183627 57 288 1.0 3.0 0.00 0.00 0.00 47 1011.4
20260505183125 57 307 0.0 5.0 0.00 0.00 0.00 47 1011.4
20260505182623 57 290 1.0 3.0 0.00 0.00 0.00 46 1011.4
20260505182151 58 229 0.0 5.0 0.00 0.00 0.00 46 1011.4
20260505181611 58 162 2.0 5.0 0.00 0.00 0.00 45 1011.4
20260505181111 58 27 1.0 5.0 0.00 0.00 0.00 46 1011.4
20260505180615 58 141 1.0 10.0 0.00 0.00 0.00 47 1011.3
20260505180115 57 146 2.0 10.0 0.00 0.00 0.00 48 1011.3
20260505175642 57 157 3.0 7.0 0.00 0.00 0.00 46 1011.3
20260505175130 57 228 3.0 7.0 0.00 0.00 0.00 47 1011.3
20260505174612 57 137 1.0 5.0 0.00 0.00 0.00 51 1011.3
20260505174113 57 274 1.0 5.0 0.00 0.00 0.00 49 1011.3
20260505173613 56 193 1.0 8.0 0.00 0.00 0.00 50 1011.3
20260505173121 57 161 2.0 6.0 0.00 0.00 0.00 49 1011.3
20260505172622 56 276 2.0 5.0 0.00 0.00 0.00 51 1011.2
20260505172122 57 219 1.0 7.0 0.00 0.00 0.00 49 1011.3
20260505171630 57 207 2.0 7.0 0.00 0.00 0.00 49 1011.2
20260505171112 56 118 2.0 6.0 0.00 0.00 0.00 49 1011.2
20260505170612 56 176 1.0 7.0 0.00 0.00 0.00 50 1011.1
20260505170121 56 226 2.0 7.0 0.00 0.00 0.00 50 1011.2
20260505165622 56 203 3.0 7.0 0.00 0.00 0.00 50 1011.1
20260505165149 56 202 1.0 6.0 0.00 0.00 0.00 50 1011.0
20260505164656 56 253 1.0 6.0 0.00 0.00 0.00 51 1011.1
20260505164113 56 143 1.0 5.0 0.00 0.00 0.00 51 1011.1
20260505163613 56 59 1.0 8.0 0.00 0.00 0.00 50 1011.0
20260505163121 56 258 2.0 8.0 0.00 0.00 0.00 51 1011.1
20260505162621 56 251 2.0 7.0 0.00 0.00 0.00 50 1011.1
20260505162149 56 211 1.0 6.0 0.00 0.00 0.00 50 1011.0
20260505161629 56 181 1.0 5.0 0.00 0.00 0.00 52 1010.9
20260505161137 56 200 1.0 5.0 0.00 0.00 0.00 53 1010.9
20260505160617 56 140 0.0 2.0 0.00 0.00 0.00 54 1010.9
20260505160117 55 189 0.0 2.0 0.00 0.00 0.00 55 1010.8
20260505153119 55 336 1.0 2.0 0.00 0.00 0.00 57 1010.7
20260505152647 55 277 1.0 1.0 0.00 0.00 0.00 58 1010.6
20260505152153 55 287 0.0 1.0 0.00 0.00 0.00 61 1010.6
20260505151613 55 298 0.0 3.0 0.00 0.00 0.00 59 1010.6
20260505151141 54 283 0.0 3.0 0.00 0.00 0.00 59 1010.6
20260505150621 55 318 0.0 1.0 0.00 0.00 0.00 59 1010.5
20260505150123 54 176 0.0 1.0 0.00 0.00 0.00 58 1010.5
20260505140624 55 87 1.0 5.0 0.00 0.00 0.00 54 1010.1
20260505140111 55 192 1.0 7.0 0.00 0.00 0.00 54 1010.1
20260505130122 54 144 5.0 12.0 0.00 0.00 0.00 55 1009.6
20260505124613 54 59 3.0 9.0 0.00 0.00 0.00 58 1009.5
20260505124114 55 155 3.0 8.0 0.00 0.00 0.00 58 1009.4
20260505123621 55 124 3.0 8.0 0.00 0.00 0.00 56 1009.4
20260505123150 55 91 4.0 8.0 0.00 0.00 0.00 56 1009.3
20260505122628 55 129 4.0 10.0 0.00 0.00 0.00 58 1009.2
20260505122129 55 135 3.0 10.0 0.00 0.00 0.00 61 1009.2
20260505121638 55 67 2.0 5.0 0.00 0.00 0.00 62 1009.2
20260505121117 55 118 2.0 5.0 0.00 0.00 0.00 61 1009.1
20260505120618 55 136 1.0 3.0 0.00 0.00 0.00 60 1009.2
20260505120126 55 127 2.0 3.0 0.00 0.00 0.00 59 1009.1
20260505115627 55 139 1.0 4.0 0.00 0.00 0.00 58 1009.1
20260505115135 55 101 1.0 4.0 0.00 0.00 0.00 59 1009.1
20260505114616 54 60 0.0 1.0 0.00 0.00 0.00 60 1009.1
20260505114117 54 60 0.0 1.0 0.00 0.00 0.00 60 1009.1
20260505113626 54 57 0.0 1.0 0.00 0.00 0.00 61 1009.1
20260505113126 54 341 0.0 1.0 0.00 0.00 0.00 61 1009.1
20260505112635 54 333 0.0 1.0 0.00 0.00 0.00 62 1009.1
20260505112115 54 333 0.0 1.0 0.00 0.00 0.00 63 1009.1
20260505111625 54 332 0.0 0.0 0.00 0.00 0.00 63 1009.1
20260505111124 54 332 0.0 0.0 0.00 0.00 0.00 62 1009.2
20260505110631 55 332 0.0 0.0 0.00 0.00 0.00 61 1009.3
20260505110133 55 332 0.0 1.0 0.00 0.00 0.00 60 1009.3
20260505102155 56 34 0.0 1.0 0.00 0.00 0.00 54 1009.1
20260505101616 56 68 1.0 2.0 0.00 0.00 0.00 54 1009.2
20260505101117 56 108 0.0 3.0 0.00 0.00 0.00 55 1009.2
20260505100625 56 283 1.0 4.0 0.00 0.00 0.00 55 1009.2
20260505100146 56 101 2.0 7.0 0.00 0.00 0.00 56 1009.4
20260505095634 56 145 1.0 7.0 0.00 0.00 0.00 55 1009.4
20260505095114 56 89 3.0 7.0 0.00 0.00 0.00 58 1009.4
20260505094622 56 115 3.0 5.0 0.00 0.00 0.00 58 1009.4
20260505094120 56 140 2.0 5.0 0.00 0.00 0.00 57 1009.4
20260505093620 56 60 0.0 2.0 0.00 0.00 0.00 57 1009.4
20260505093129 56 90 1.0 2.0 0.00 0.00 0.00 57 1009.4
20260505092611 55 84 0.0 2.0 0.00 0.00 0.00 58 1009.3
20260505092111 55 63 0.0 2.0 0.00 0.00 0.00 60 1009.2
20260505091639 55 73 1.0 2.0 0.00 0.00 0.00 61 1009.2
20260505091119 55 64 0.0 1.0 0.00 0.00 0.00 61 1009.2
20260505090628 55 35 0.0 2.0 0.00 0.00 0.00 62 1009.3
20260505090152 55 33 1.0 3.0 0.00 0.00 0.00 61 1009.3
20260505085615 55 30 1.0 3.0 0.00 0.00 0.00 62 1009.4
20260505085116 55 37 0.0 5.0 0.00 0.00 0.00 63 1009.5
20260505084640 55 39 0.0 5.0 0.00 0.00 0.00 63 1009.6
20260505084120 55 32 1.0 5.0 0.00 0.00 0.00 63 1009.6
20260505083649 56 344 1.0 2.0 0.00 0.00 0.00 62 1009.6
20260505083129 56 340 1.0 2.0 0.00 0.00 0.00 62 1009.6
20260505082636 56 23 0.0 4.0 0.00 0.00 0.00 62 1009.6
20260505082116 56 12 1.0 4.0 0.00 0.00 0.00 62 1009.7
20260505081617 56 29 1.0 3.0 0.00 0.00 0.00 62 1009.7
20260505081118 56 49 1.0 4.0 0.00 0.00 0.00 62 1009.7
20260505080626 56 9 0.0 4.0 0.00 0.00 0.00 62 1009.7
20260505080154 56 13 1.0 4.0 0.00 0.00 0.00 62 1009.7
20260505075633 56 38 0.0 3.0 0.00 0.00 0.00 62 1009.6
20260505075121 56 32 1.0 4.0 0.00 0.00 0.00 61 1009.6
20260505074619 56 25 2.0 4.0 0.00 0.00 0.00 61 1009.6
20260505074122 56 29 0.0 2.0 0.00 0.00 0.00 62 1009.4
20260505073630 56 360 0.0 1.0 0.00 0.00 0.00 61 1009.4
20260505073159 56 307 0.0 1.0 0.00 0.00 0.00 61 1009.5
20260505072618 56 32 0.0 2.0 0.00 0.00 0.00 61 1009.5
20260505072139 56 40 0.0 3.0 0.00 0.00 0.00 61 1009.5
20260505071627 56 4 0.0 1.0 0.00 0.00 0.00 60 1009.4
20260505071128 56 64 0.0 3.0 0.00 0.00 0.00 61 1009.5
20260505070630 56 354 0.0 3.0 0.00 0.00 0.00 62 1009.5
20260505070118 56 216 2.0 4.0 0.00 0.00 0.00 62 1009.5
20260505065620 56 269 0.0 2.0 0.00 0.00 0.00 62 1009.5
20260505064622 56 155 2.0 5.0 0.00 0.00 0.00 63 1009.5
20260505064124 56 129 1.0 7.0 0.00 0.00 0.00 63 1009.5
20260505063632 56 124 0.0 7.0 0.00 0.00 0.00 62 1009.6
20260505063113 56 139 2.0 6.0 0.00 0.00 0.00 62 1009.6
20260505062613 56 35 1.0 7.0 0.00 0.00 0.00 60 1009.5
20260505062115 56 245 2.0 7.0 0.00 0.00 0.00 60 1009.5
20260505061623 56 120 2.0 5.0 0.00 0.00 0.00 59 1009.4
20260505061124 56 77 1.0 4.0 0.00 0.00 0.00 59 1009.4
20260505060612 56 200 0.0 4.0 0.00 0.00 0.00 58 1009.3
20260505060113 56 63 1.0 7.0 0.00 0.00 0.00 57 1009.3
20260505055642 56 139 3.0 7.0 0.00 0.00 0.00 57 1009.2